Regional Weather Roundup
Issued by NWS

Home | Current Version | Previous Version | Text Only | Print | Product List | Glossary On
Versions: 1 2 3 4 5 6 7 8 9 10 11 12 13 14 15 16 17 18 19 20 21 22 23 24 25 26 27
000
ASUS44 KLUB 031010
RWRLUB
WEST TEXAS WEATHER ROUNDUP
NATIONAL WEATHER SERVICE LUBBOCK TX
500 AM CDT TUE AUG 03 2021

NOTE: "FAIR" INDICATES FEW OR NO CLOUDS BELOW 12,000 FEET WITH NO
SIGNIFICANT WEATHER AND/OR OBSTRUCTIONS TO VISIBILITY.

TXZ004-006>008-010-012-014-016-OKZ002-031100-
TEXAS PANHANDLE/OKLAHOMA PANHANDLE

CITY           SKY/WX    TMP DP  RH WIND       PRES   REMARKS
AMARILLO       PTCLDY    59  48  67 SW9       30.18F
BORGER         PTCLDY    65  52  62 CALM      30.17S
CANADIAN       CLEAR     55  53  94 CALM      30.14S
DALHART        PTCLDY    56  53  90 SW6       30.22F
DUMAS          PTCLDY    60  49  67 SW9       30.21R
GUYMON         PTCLDY    60  56  86 SW6       30.16F
HEREFORD       CLEAR     56  52  85 CALM      30.22F
PAMPA          CLEAR     60  55  85 W5        30.19S
PERRYTON       PTCLDY    58  52  81 W6        30.15R
$$

TXZ026-029-035-045-048-031100-
SOUTHERN PANHANDLE/SOUTH PLAINS/ROLLING PLAINS

CITY           SKY/WX    TMP DP  RH WIND       PRES   REMARKS
CHILDRESS      CLEAR     64  56  75 NW5       30.13S
SEMINOLE       CLEAR     64  59  85 CALM      30.22F
LUBBOCK        CLEAR     61  52  72 CALM      30.18S
PLAINVIEW      CLEAR     58  54  87 CALM      30.18F
SNYDER         CLEAR     65  56  72 N3        30.14F
$$

TXZ052-054-060>062-072-078-127-140-154-169-031100-
PERMIAN BASIN/CONCHO VALLEY/BIG COUNTRY/EDWARDS PLATEAU

CITY           SKY/WX    TMP DP  RH WIND       PRES   REMARKS
ABILENE        CLEAR     61  57  87 CALM      30.10F
BIG SPRING     CLEAR     65  58  77 CALM      30.13F
BRADY            N/A    N/A N/A N/A MISG        N/A
JUNCTION       MOCLDY    71  68  90 CALM      30.06F
MIDLAND        CLEAR     63  60  90 CALM      30.14F
ODESSA         CLEAR     63  56  78 E8        30.15F
SAN ANGELO     CLEAR     64  60  87 CALM      30.09S
SONORA         CLEAR     68  61  77 CALM      30.13S
SWEETWATER     CLEAR     64  52  66 N5        30.14F
WINK           CLEAR     66  62  87 N6        30.12F
$$

TXZ055-058-074-075-080-082-031100-
FAR WEST/SOUTHWEST MOUNTAINS/TRANS PECOS

CITY           SKY/WX    TMP DP  RH WIND       PRES   REMARKS
ALPINE         CLOUDY    65  63  93 CALM      30.27S
DRYDEN           N/A     74  71  91 N6        30.10F
EL PASO        CLOUDY    72  59  63 SE7       30.17F
FORT STOCKTON  PTCLDY    70  66  87 SE3       30.14F
GUADALUPE PASS CLEAR     61  57  87 NE13      30.29F
MARFA          CLEAR     62  60  93 N7        30.25F
PECOS          PTCLDY    69  67  96 CALM      30.13S
PRESIDIO       FAIR      74  63  68 NE5       30.13S
$$

TXZ014-016-019-021>030-083-031100
TEXAS TECH WEST TEXAS MESONET/TEXAS PANHANDLE/NORTHERN SOUTH PLAINS

CITY           SKY/WX    TMP DP  RH WIND       PRES   REMARKS
ABERNATHY 5ENE   N/A     57  54  87 CALM      30.20S
AMARILLO 9NNE    N/A     56  52  85 S3        30.19F
AMARILLO 7SSE    N/A     54  49  84 CALM      30.22S
AMHERST 1NE      N/A     59  57  91 CALM      30.21S
BOOTLEG 11WNW    N/A     56  51  85 S9        30.27F
CANADIAN 6E      N/A     60  58  92 CALM      30.13S
CAPROCK CYN SP   N/A     61  54  77 W8        30.16S
CHILDRESS 2NNE   N/A     63  57  82 W7        30.13S
CLARENDON 2WSW   N/A     60  53  77 CALM      30.16F
CLAUDE 12SW      N/A     63  49  61 CALM      30.20S
DIMMITT 2NE      N/A     58  50  75 S3        30.22S
FLOYDADA 2NNE    N/A     54  52  92 W7        30.19S
FRIONA 2NE       N/A     56  53  90 CALM      30.23S
GOODLETT 3W      N/A     64  57  77 NW7       30.10S
HART 3N          N/A     56  53  92 SE5       30.21F
HEREFORD 2NW     N/A     55  50  82 SW5       30.23S
MCLEAN 1E        N/A     64  53  66 SW5       30.15S
MEMPHIS 1NE      N/A     61  57  88 CALM      30.14S
MULESHOE 2SSW    N/A     53  51  94 CALM      30.22S
OLTON 6S         N/A     54  52  92 SW5       30.20S
PALO DURO SP     N/A     59  49  69 SW5       30.21F
PAMPA 2E         N/A     59  52  79 W3        30.19R
PLAINVIEW 1S     N/A     58  54  88 CALM      30.20S
SILVERTON 7ESE   N/A     57  53  86 W6        30.18F
TULIA 2ENE       N/A     56  51  82 CALM      30.20F
TURKEY 2WSW      N/A     62  56  79 W7        30.14S
UMBARGER 3NNE    N/A     58  49  71 W6        30.22F
$$

TXZ033>036-039>041-045>048-031100
TEXAS TECH WEST TEXAS MESONET/SOUTH PLAINS

CITY           SKY/WX    TMP DP  RH WIND       PRES   REMARKS
AIKEN 3WSW       N/A     56  54  92 CALM      30.20F
ANDREWS 2NE      N/A     62  60  91 CALM      30.17S
ANTON 6SSW       N/A     57  54  89 CALM      30.20S
BROWNFIELD 2S    N/A     63  56  77 E3        30.19S
DENVR CTY 7WNW   N/A     62  57  83 CALM      30.20F
GAIL 2ESE        N/A     63  56  78 NW3       30.15S
LAMESA 2SE       N/A     58  56  93 CALM      30.17F
LUBBOCK 3WNW     N/A     55  52  91 CALM      30.19S
MORTON 1ENE      N/A     58  54  87 CALM      30.21F
ODONNELL 1N      N/A     61  59  92 CALM      30.18S
PLAINS 3N        N/A     62  55  77 CALM      30.21S
RALLS 1SE        N/A     58  56  90 CALM      30.19R
REESE CENTER     N/A     61  55  81 CALM      30.19S
SEAGRAVES 1SW    N/A     60  58  93 CALM      30.19S
SEMINOLE 2NNE    N/A     62  58  86 CALM      30.19S
SLATON 2NE       N/A     60  55  84 CALM      30.18F
SNYDER 3E        N/A     63  57  80 CALM      30.13S
SUNDOWN 8SW      N/A     60  54  82 E6        30.21S
TAHOKA 3NNE      N/A     59  56  91 CALM      30.18S
WOLFFORTH 6SSW   N/A     58  55  89 CALM      30.20S
$$

TXZ031-032-036>038-042>044-031100-
TEXAS TECH WEST TEXAS MESONET/ROLLING PLAINS

CITY           SKY/WX    TMP DP  RH WIND       PRES   REMARKS
ASPERMONT 3NE    N/A     59  57  95 CALM      30.11S
FLUVANNA 3WNW    N/A     60  53  75 N6        30.15F
GRAHAM 5SSW      N/A     63  56  77 N6        30.16F
GUTHRIE 10WSW    N/A     64  57  78 CALM      30.12S
HASKELL 1NW      N/A     63  61  91 CALM      30.09F
JAYTON 1SSE      N/A     58  54  85 NW3       30.12F
KNOX CITY 3NW    N/A     64  62  94 CALM      30.09F
LK A HENRY 1NW   N/A     58  53  84 NW5       30.14S
NORTHFIELD 1S    N/A     58  54  87 SW5       30.13F
ODELL 4ENE       N/A     60  59  95 W5        30.10S
PADUCAH 10SW     N/A     64  57  78 W8        30.14S
POST 1NE         N/A     62  54  75 NW6       30.15F
RRING SPRGS 3N   N/A     59  53  81 W8        30.16S
SEYMOUR 3NW      N/A     61  58  91 CALM      30.09S
SPUR 1W          N/A     59  56  88 N5        30.13S
WEINERT 2NNE     N/A     64  62  90 CALM      30.10S
WHITE RVR 6NE    N/A     63  54  73 NW6       30.16S
$$

TXZ052-054-060>062-072-078-127-140-154-169-031100-
TEXAS TECH WEST TEXAS MESONET/PERMIAN BASIN/
CONCHO VALLEY/BIG COUNTRY/EDWARDS PLATEAU

CITY           SKY/WX    TMP DP  RH WIND       PRES   REMARKS
COYANOSA 2N      N/A     69  64  84 E5        30.13F
JUNCTION 1SSW    N/A     69  69 100 CALM      30.08R
MERTZON 3NNE     N/A     60  60 100 CALM      30.13S
SAN ANGELO 7NW   N/A     65  58  77 CALM      30.10S
STRLNG CT 4WSW   N/A     55  55 100 CALM      30.14S
ST LAWRNCE 5SW   N/A     62  56  81 NE6       30.14F
SWEETWATR 11SW   N/A     64  56  76 E7        30.14F
WALL 1E          N/A     62  57  84 CALM      30.11S
$$

TXZ055-058-074-075-080-082-031100-
TEXAS TECH WEST TEXAS MESONET/FAR WEST/SOUTHWEST MOUNTAINS/TRANS PECOS

CITY           SKY/WX    TMP DP  RH WIND       PRES   REMARKS
PRSMN GAP BBNP   N/A     74  66  77 N9        30.12S
GUADLPE MTN NP   N/A     61  56  84 N6        30.31S
$$



USA.gov is the U.S. government's official web portal to all federal, state and local government web resources and services.